Regional Weather Roundup
Issued by NWS Cleveland, OH

Home | Current Version | Previous Version | Graphics & Text | Print | Product List | Glossary On
Versions: 1 2 3 4 5 6 7 8 9 10 11 12 13 14 15 16 17 18 19 20 21 22 23 24 25 26 27 28 29 30 31 32 33 34 35 36 37 38 39 40 41 42 43 44 45 46 47 48 49 50
000
ASUS41 KCLE 272200
RWRCLE
OHIO REGIONAL WEATHER ROUNDUP
NATIONAL WEATHER SERVICE WILMINGTON, OH
600 PM EDT WED AUG 27 2014

NOTE: "FAIR" INDICATES FEW OR NO CLOUDS BELOW 12,000 FEET WITH NO
SIGNIFICANT WEATHER AND/OR OBSTRUCTIONS TO VISIBILITY.

OHZ001>008-015>018-024>027-034-035-043-044-272300-
   NORTHWEST OHIO

CITY           SKY/WX    TMP DP  RH WIND       PRES   REMARKS
DEFIANCE       SUNNY     84  63  49 VRB3      30.06F
FINDLAY        MOSUNNY   85  63  47 W3        30.04F
TOLEDO EXPRESS SUNNY     80  61  52 N9        30.07S
TOLEDO METCALF MOSUNNY   78  64  61 NE7       30.08R
LIMA           MOSUNNY   82  69  64 N7        30.06F
$$

OHZ009>014-019>023-028>033-038-089-272300-
   NORTHEAST OHIO

CITY           SKY/WX    TMP DP  RH WIND       PRES   REMARKS
CLE-HOPKINS    MOSUNNY   73  61  65 N10       30.09S
CLE-LAKEFRONT  PTSUNNY   74  62  66 N7        30.05F
CUY CO. ARPT   PTSUNNY   75  63  64 N14       30.08F
LORAIN-ELYRIA  SUNNY     76  63  64 N8        30.08S
ASHTABULA      MOSUNNY   70  59  68 N7        30.08S
AKRON-CANTON   MOSUNNY   78  65  63 N10       30.04S
WOOSTER        NOT AVBL
MANSFIELD      PTSUNNY   78  68  71 N10       30.07F
YOUNGSTOWN     MOSUNNY   75  63  66 NW12      30.06S
$$

OHZ042-051>053-060>062-070>072-077>081-272300-
  SOUTHWEST OHIO

CITY           SKY/WX    TMP DP  RH WIND       PRES   REMARKS
CINC-COVINGTON MOSUNNY   87  70  56 NW8       30.02F HX  92
CINC-LUNKEN    PTSUNNY   89  71  55 N12       30.00F HX  95
HAMILTON       MOSUNNY   89  71  55 NW10      30.02F HX  95
DAYTON         NOT AVBL
WRIGHT-PAT AFB SUNNY     85  71  64 NW7       30.03F HX  90
DAYTON GENERAL MOSUNNY   85  71  63 NW10      30.03F HX  90
WILMINGTON     PTSUNNY   87  70  56 NW9       30.03F HX  92
$$

OHZ036-037-039>041-045>050-054>059-063>069-073>076-082>088-272300-
  CENTRAL AND SOUTHEAST OHIO

CITY           SKY/WX    TMP DP  RH WIND       PRES   REMARKS
COLUMBUS       MOSUNNY   84  73  69 SW6       30.02F HX  90
OSU AIRPORT    MOSUNNY   84  70  62 NW8       30.03F
BOLTON FIELD   SUNNY     81  73  78 E3        30.04S
RICKENBACK AFB NOT AVBL
NEWARK         MOSUNNY   84  71  65 NW6       30.02S
MARION         MOSUNNY   79  69  71 N9        30.05F
LANCASTER      TSTM      74  71  91 E5        30.03R VSB 3/4
ZANESVILLE     MOSUNNY   86  70  58 NW8       30.01F HX  90
NEW PHILLY     PTSUNNY   82  71  69 N7        30.02F
$$



USA.gov is the U.S. government's official web portal to all federal, state and local government web resources and services.